Weather History for Thermal, CA

Change the Weather History Date:

Saturday, May 12, 2012

  Actual Average Record
Temperature  
Mean Temperature 79 °F 78 °F  
Max Temperature 99 °F 94 °F 112 °F (1988)
Min Temperature 59 °F 61 °F 49 °F (2014)
Degree Days  
Heating Degree Days 0 0  
Month to date heating degree days 0 0  
Since 1 July heating degree days 1243 1180  
Cooling Degree Days 14 13  
Month to date cooling degree days 168 135  
Year to date cooling degree days 435 391  
Growing Degree Days 30 (Base 50)    
Moisture  
Dew Point 45 °F    
Average Humidity 38    
Maximum Humidity 69    
Minimum Humidity 6    
Precipitation  
Precipitation 0.00 in 0.00 in 0.04 in (1961)
Month to date precipitation 0.00 0.01  
Year to date precipitation 0.36 1.78  
Since 1 July precipitation 1.35 3.16  
Snow  
Snow 0.00 in - - ()
Month to date snowfall 0.0  
Year to date snowfall 0.0  
Since 1 July snowfall 0.0  
Snow Depth 0.00 in    
Sea Level Pressure  
Sea Level Pressure 29.86 in    
Wind  
Wind Speed 6 mph (SW)    
Max Wind Speed 17 mph    
Max Gust Speed 25 mph    
Visibility 10 miles    
Events      
T = Trace of Precipitation, MM = Missing Value Source: NWS Daily Summary

Daily Weather History Graph

Daily Weather History Graph

Search for Another Location

Airport:

Trip Planner

Search our weather history database for the weather conditions in past years. The results will help you decide how hot, cold, wet, or windy it might be!

Date:

Astronomy

May. 12, 2012 Rise Set
Actual Time 5:45 AM PDT 7:36 PM PDT
Civil Twilight 5:18 AM PDT 8:04 PM PDT
Nautical Twilight 4:45 AM PDT 8:37 PM PDT
Astronomical Twilight 4:10 AM PDT 9:12 PM PDT
Moon 12:58 AM PDT (5/12) 12:22 PM PDT (5/12)
Length of Visible Light 14h 45m
Length of Day
13h 50m
Waning Gibbous, 51% of the Moon is Illuminated
May 12
Waning Gibbous
May 12
Last Quarter
May 20
New
May 28
First Quarter
Jun 4
Full

Hourly Weather History & Observations

Time (PDT) Temp. Heat Index Dew Point Humidity Pressure Visibility Wind Dir Wind Speed Gust Speed Precip Events Conditions
12:52 AM 77.0 °F - 50.0 °F 39% 29.80 in 10.0 mi NW 13.8 mph - N/A   Clear
1:52 AM 75.9 °F - 50.0 °F 40% 29.81 in 10.0 mi NW 11.5 mph 23.0 mph N/A   Clear
2:52 AM 73.9 °F - 51.1 °F 45% 29.81 in 10.0 mi NW 10.4 mph - N/A   Clear
3:52 AM 72.0 °F - 50.0 °F 46% 29.83 in 10.0 mi North 3.5 mph - N/A   Clear
4:52 AM 61.0 °F - 50.0 °F 67% 29.85 in 10.0 mi South 4.6 mph - N/A   Clear
5:52 AM 60.1 °F - 50.0 °F 69% 29.87 in 10.0 mi Calm Calm - N/A   Clear
6:06 AM 60.8 °F - 48.2 °F 63% 29.87 in 10.0 mi Calm Calm - N/A   Partly Cloudy
6:52 AM 64.9 °F - 52.0 °F 63% 29.90 in 10.0 mi Calm Calm - N/A   Clear
7:52 AM 73.9 °F - 52.0 °F 46% 29.91 in 10.0 mi Calm Calm - N/A   Clear
8:52 AM 80.1 °F - 51.1 °F 36% 29.92 in 10.0 mi Calm Calm - N/A   Clear
10:52 AM 88.0 °F - 50.0 °F 27% 29.92 in 10.0 mi SSE 8.1 mph - N/A   Clear
11:52 AM 90.0 °F 87.5 °F 53.1 °F 28% 29.91 in 10.0 mi SSE 10.4 mph 16.1 mph N/A   Clear
12:52 PM 93.9 °F - 48.0 °F 21% 29.89 in 10.0 mi Variable 5.8 mph - N/A   Clear
1:52 PM 96.1 °F - 39.9 °F 14% 29.88 in 10.0 mi Variable 3.5 mph - N/A   Clear
2:52 PM 99.0 °F - 36.0 °F 11% 29.88 in 10.0 mi SE 6.9 mph - N/A   Clear
3:52 PM 98.1 °F - 24.1 °F 7% 29.83 in 10.0 mi SSE 8.1 mph - N/A   Clear
4:52 PM 98.1 °F - 19.0 °F 6% 29.82 in 10.0 mi SSE 6.9 mph - N/A   Clear
5:52 PM 96.1 °F - 30.0 °F 10% 29.84 in 10.0 mi SE 5.8 mph - N/A   Clear
6:52 PM 91.9 °F - 36.0 °F 14% 29.81 in 10.0 mi SSE 5.8 mph - N/A   Clear
7:52 PM 80.1 °F - 41.0 °F 25% 29.83 in 10.0 mi Calm Calm - N/A   Clear
8:52 PM 81.0 °F - 39.9 °F 23% 29.85 in 10.0 mi NNW 4.6 mph - N/A   Clear
9:52 PM 84.9 °F - 51.1 °F 31% 29.86 in 10.0 mi NW 10.4 mph - N/A   Clear
10:52 PM 82.0 °F - 51.1 °F 34% 29.87 in 10.0 mi WNW 5.8 mph - N/A   Clear
11:52 PM 82.0 °F - 48.9 °F 31% 29.88 in 10.0 mi NW 11.5 mph - N/A   Clear